Theta_e
344 341 341 341 341 340 338 338 339 336 330 328 327 326 323 318 314 313 312 312 310 307 308 310 310 310 310 311 312 313 312 312 311 311 311 311 312 312 313 314 314 314 314
342 340 340 338 340 340 339 337 335 329 326 322 317 315 313 313 313 312 309 307 308 309 311 311 313 315 314 313 312 312 311 310 310 310 310 311 314 313 313 313 314 314 313
340 339 338 338 337 335 333 328 323 317 315 314 314 313 313 312 308 307 308 310 311 313 315 315 315 313 314 313 311 310 311 313 312 310 311 312 311 311 313 313 313 313 314
338 336 332 331 328 327 323 318 315 314 313 313 312 310 308 307 308 310 311 314 315 315 314 314 313 312 310 310 312 312 312 312 312 312 312 310 310 312 311 310 310 311 311
335 329 325 320 319 317 315 313 313 312 309 308 307 308 308 308 311 313 315 315 314 314 313 313 313 312 312 313 312 312 311 310 310 309 310 309 311 311 310 310 309 309 310
327 323 318 316 314 313 312 310 308 307 308 308 308 308 308 311 314 314 314 313 313 313 313 313 313 313 314 313 311 310 308 306 308 306 308 307 310 310 310 309 308 307 306
319 316 314 312 311 309 308 308 309 309 309 308 307 308 309 311 313 313 313 313 313 313 313 313 313 313 313 312 311 310 310 309 307 305 307 309 309 310 309 309 310 308 307
314 312 309 308 308 308 309 309 309 308 308 307 307 308 310 311 312 312 312 312 312 313 313 313 313 313 312 311 311 311 310 310 310 309 309 310 310 310 310 309 308 307 305
309 308 307 308 308 309 309 309 308 308 307 306 308 309 311 312 312 311 311 312 313 312 313 313 313 312 312 312 312 311 311 311 310 310 310 310 310 311 309 309 306 306 306
307 307 307 308 308 309 309 309 309 308 308 308 310 311 311 311 312 312 311 311 312 313 313 313 313 313 313 312 312 311 311 310 310 310 310 310 310 311 310 308 307 307 307
307 307 307 308 308 308 309 309 309 309 309 309 310 310 310 310 311 312 312 311 311 312 313 313 313 312 312 312 312 312 311 310 310 310 309 308 308 309 309 309 308 307 307
307 307 307 308 308 308 308 309 309 309 309 310 309 309 310 309 309 310 310 309 309 310 310 312 311 311 311 311 311 311 312 311 310 309 307 306 307 307 308 310 309 309 309
306 307 307 307 308 307 307 308 308 308 308 308 308 308 308 307 307 308 307 307 309 307 305 307 310 310 310 311 311 311 311 311 309 307 307 306 305 305 308 311 310 310 309
305 305 305 306 306 306 306 305 306 306 306 306 307 307 306 306 307 306 307 307 306 305 303 303 304 306 309 310 310 310 310 310 308 308 307 306 306 306 308 309 309 309 310
304 304 304 305 305 305 305 304 304 304 304 304 303 302 302 304 303 300 301 306 307 305 302 303 305 305 304 304 308 309 310 311 311 310 308 307 307 306 305 307 308 309 308
304 303 303 304 304 304 303 302 302 301 303 302 300 299 298 296 295 297 299 302 301 301 304 303 300 297 295 297 304 307 308 309 310 310 309 308 306 305 306 305 307 307 307
302 302 302 302 301 301 300 300 300 298 297 297 296 297 297 297 299 298 296 296 297 297 297 294 293 293 292 293 299 303 306 307 309 309 309 308 307 305 305 304 305 306 306
300 300 301 299 298 298 297 297 297 296 295 295 294 293 293 293 294 295 298 299 300 294 291 290 290 290 291 291 295 302 303 306 307 309 309 309 308 306 306 305 304 304 305
298 298 297 296 296 295 294 294 294 294 294 293 293 292 292 292 292 291 291 291 289 289 289 289 289 290 290 290 292 298 300 303 304 306 308 308 308 307 307 306 306 305 306
294 294 294 294 293 293 292 292 291 292 292 292 292 292 292 291 291 290 290 289 289 288 288 288 289 289 289 290 290 294 297 301 304 304 305 307 308 308 307 307 307 306 306
295 294 293 292 292 292 291 291 291 290 291 291 291 291 291 290 290 290 289 288 288 288 287 288 288 288 289 289 290 290 294 295 297 301 302 304 306 308 308 307 308 308 308
294 293 292 292 291 291 291 291 291 290 290 290 290 290 290 290 289 289 289 288 287 287 287 287 287 287 288 288 289 289 290 292 293 294 297 301 302 304 307 307 307 308 308
292 291 291 291 291 290 290 290 290 290 289 289 289 289 289 288 288 288 287 287 286 286 286 287 287 287 287 287 288 288 289 289 292 293 293 296 300 300 302 305 306 307 307
291 291 290 290 290 290 290 289 289 289 288 288 288 288 288 287 287 287 287 286 286 286 286 286 286 287 287 287 287 288 288 288 289 292 292 293 296 298 300 302 304 306 306
291 291 291 291 290 290 289 289 289 289 288 288 288 287 287 286 286 286 286 286 286 286 286 286 286 286 286 287 287 287 288 288 289 290 291 292 293 295 296 298 301 304 305
292 291 291 291 290 290 290 289 289 288 288 288 287 286 286 286 286 285 285 285 285 286 286 286 286 286 286 287 287 287 287 287 288 289 290 291 292 292 293 294 297 299 302
Wind_Speed
18 13 14 14 24 27 20 17 11 8 7 5 1 3 7 9 11 14 16 19 20 21 20 20 21 21 22 22 23 24 26 28 37 44 42 42 42 43 42 36 31 27 27
20 20 19 15 18 15 12 7 6 5 3 1 1 4 7 10 13 16 19 19 18 18 18 18 19 20 23 25 27 29 31 33 37 45 45 42 35 34 31 32 30 30 28
22 22 24 20 16 13 8 9 7 5 3 1 4 7 10 14 17 17 14 15 16 16 17 18 20 21 25 29 31 32 33 34 31 33 36 34 33 32 32 32 32 32 31
22 20 22 20 17 13 10 9 6 2 3 5 8 11 14 15 13 12 12 12 13 14 16 18 20 24 28 32 30 28 28 29 30 31 32 34 34 32 32 34 34 31 31
22 22 21 18 16 13 10 6 3 3 5 8 10 12 12 10 10 13 12 13 14 16 18 21 23 25 26 26 30 30 30 29 27 27 28 30 30 28 28 30 32 36 34
25 21 18 15 13 10 7 5 4 5 6 7 9 11 9 11 13 13 14 15 16 19 23 26 26 25 24 29 33 32 29 26 25 24 27 27 27 28 26 27 30 34 30
24 20 17 13 10 9 7 6 6 6 7 8 10 12 13 12 13 14 14 15 19 23 27 27 26 26 27 29 34 30 34 28 24 21 22 24 26 26 28 28 31 34 31
23 19 15 11 9 8 8 8 8 9 9 11 14 13 11 10 11 12 13 18 22 24 25 25 26 27 28 29 33 35 34 30 23 20 21 23 23 24 29 27 29 29 28
20 17 14 11 10 10 9 9 10 10 11 14 13 11 8 7 8 8 13 18 21 23 24 23 23 24 27 28 30 31 34 36 31 26 21 20 18 24 21 24 27 23 24
19 17 15 13 11 11 11 10 11 12 14 13 11 7 7 8 6 8 13 17 20 21 21 21 20 22 24 26 31 33 30 31 33 31 24 25 20 21 22 17 23 23 21
18 16 15 13 12 12 11 12 12 10 10 8 7 7 6 6 7 8 10 14 18 20 22 21 21 23 25 25 27 30 31 30 32 31 30 27 24 23 28 15 16 18 21
16 15 14 13 12 12 10 11 9 8 6 6 6 6 5 6 7 9 12 13 13 16 19 20 20 21 24 26 27 27 29 32 31 34 31 34 30 29 27 17 15 16 14
16 16 15 14 14 13 11 11 9 8 6 6 6 5 4 6 7 9 10 10 11 15 17 17 17 18 19 22 27 29 31 33 36 37 36 36 39 31 22 17 14 16 16
17 18 16 15 15 15 14 13 12 10 10 9 7 7 6 6 7 9 9 7 10 13 15 16 17 19 20 21 23 28 33 35 37 37 35 36 39 40 27 21 21 20 20
18 17 17 16 15 16 15 15 13 13 13 13 13 12 12 11 14 17 16 12 12 14 15 16 19 22 25 26 26 28 32 32 35 36 38 37 36 33 40 25 23 22 24
17 19 18 18 17 14 13 14 13 13 12 12 13 16 19 18 15 15 15 14 13 13 13 18 22 25 29 30 29 29 31 32 32 34 36 37 37 36 34 32 25 23 24
19 19 19 18 18 16 15 13 13 14 13 13 15 14 14 14 13 13 14 15 14 13 18 22 24 26 26 27 28 29 30 31 31 31 34 36 38 38 36 38 31 26 25
20 19 17 17 16 15 14 14 12 11 11 13 15 15 14 14 14 12 12 8 10 19 23 24 25 26 27 27 27 27 27 26 30 32 33 35 37 38 37 35 35 32 29
16 17 17 17 16 15 14 12 10 9 10 11 10 13 15 14 14 16 16 20 22 24 25 25 25 26 27 28 26 25 27 28 29 31 32 34 36 36 34 34 32 32 32
17 16 15 13 12 11 12 12 12 11 9 9 12 13 13 12 17 21 22 22 23 24 25 25 26 27 28 28 28 26 26 27 27 29 31 31 32 33 35 32 31 32 32
11 11 9 10 11 10 10 10 11 13 13 11 12 12 13 16 19 21 22 24 24 23 25 25 25 26 28 29 29 28 26 28 29 29 29 29 31 31 31 31 30 30 28
10 10 8 8 8 8 9 9 10 11 12 11 10 9 10 14 17 19 21 22 23 22 23 24 24 26 28 29 30 30 29 28 28 29 29 28 28 28 28 29 29 29 28
11 10 9 10 10 10 10 9 8 8 9 10 10 10 12 14 15 17 19 20 20 21 22 22 23 24 25 26 27 29 30 29 28 28 28 28 27 26 27 27 28 28 28
11 11 11 9 7 7 7 7 8 8 9 10 11 12 13 14 15 16 17 18 19 20 20 21 22 23 24 24 25 26 27 27 24 23 25 25 26 24 24 25 25 26 25
9 9 9 8 6 7 7 6 6 7 8 9 11 12 13 14 14 15 16 17 18 19 20 21 22 23 23 23 24 24 24 24 23 21 21 22 23 23 24 25 24 25 24
4 5 5 4 3 4 4 4 5 6 8 10 11 12 13 14 15 16 16 17 17 18 18 19 20 20 21 22 24 23 22 23 23 21 20 21 23 24 24 25 25 26 26
Wind_Direction
170 177 134 134 137 139 142 140 152 160 170 168 190 305 302 297 309 316 320 317 316 317 319 321 324 320 318 315 314 313 313 314 309 310 310 310 312 316 316 313 308 311 309
148 142 145 154 164 171 167 160 172 181 162 164 280 292 313 318 321 324 325 326 330 335 335 335 331 328 325 327 325 322 320 316 311 308 311 314 317 317 324 323 318 314 311
152 153 145 148 153 144 150 151 154 142 127 6 322 323 324 331 333 337 343 351 353 350 342 337 334 333 331 330 332 325 321 321 319 316 318 320 319 323 323 324 324 317 311
157 147 140 140 140 142 145 143 133 103 348 334 331 330 333 341 353 6 12 8 3 354 348 344 338 333 335 338 341 337 333 330 328 322 320 320 324 333 335 332 328 322 315
152 144 136 135 136 137 135 127 89 9 341 335 336 338 348 11 35 36 30 23 12 0 353 348 345 345 352 358 357 352 342 335 331 327 325 328 335 341 339 339 333 334 324
144 138 134 137 135 129 114 86 40 14 3 358 359 13 37 67 55 48 36 26 11 13 10 6 358 355 2 6 2 354 351 342 335 332 332 333 337 337 337 334 338 338 323
137 135 138 134 127 109 88 65 52 45 36 30 41 59 70 68 57 46 35 31 22 14 8 5 14 17 18 11 7 5 1 353 352 346 339 344 338 340 328 325 327 330 321
134 132 128 124 112 99 85 76 70 63 60 66 68 70 70 60 65 53 38 26 21 15 11 16 23 21 13 6 9 12 7 3 355 351 349 347 345 338 345 341 337 333 332
129 125 119 111 103 99 93 83 80 68 79 78 71 69 65 73 73 49 31 26 22 20 16 16 17 18 11 4 0 8 7 8 7 2 356 349 347 350 348 348 360 348 344
125 116 111 109 107 103 91 90 91 88 86 86 77 72 67 58 49 34 21 21 20 23 15 15 16 11 9 5 11 8 358 5 4 4 358 3 356 359 5 358 355 2 0
118 116 115 111 106 98 92 95 97 98 98 108 80 66 50 42 20 4 358 9 15 26 17 20 17 16 13 9 14 10 7 4 3 7 11 9 12 14 11 16 15 15 10
118 117 112 106 101 96 92 94 96 93 95 97 78 78 38 28 17 2 358 2 10 18 18 21 25 26 20 15 14 9 10 12 10 13 21 21 18 17 9 12 9 354 354
119 112 106 103 99 95 89 85 86 85 88 81 83 69 42 40 31 9 360 12 15 13 16 15 18 20 25 20 21 13 16 16 22 25 26 25 27 15 6 11 13 10 10
117 107 101 99 98 97 91 87 83 81 77 73 59 49 37 22 17 24 29 27 23 12 10 10 17 18 20 20 22 22 22 24 28 27 31 32 32 22 18 14 11 9 11
108 103 101 101 105 103 95 88 83 78 68 61 56 51 50 37 30 20 18 13 11 4 0 4 6 6 13 20 26 26 25 24 25 27 30 30 32 22 17 19 21 23 27
110 105 100 101 102 99 94 97 90 83 70 61 54 50 47 49 45 31 20 11 7 5 351 12 15 14 17 18 20 27 26 24 26 26 29 31 33 30 17 21 27 27 29
107 103 98 94 91 92 91 88 85 80 76 72 61 52 46 43 38 33 25 24 18 14 28 27 23 21 20 20 22 26 28 24 23 28 31 31 35 35 32 22 28 33 35
103 102 103 100 96 96 93 88 86 86 71 66 57 51 44 41 38 33 28 1 23 31 36 34 32 27 25 24 23 26 30 26 26 28 31 33 36 37 34 35 31 36 40
109 113 111 109 105 97 90 85 80 78 71 67 60 48 38 35 39 44 40 42 42 41 37 36 34 30 28 27 27 29 29 30 27 29 32 34 36 37 37 38 38 37 40
105 105 107 107 103 92 85 77 75 82 81 70 62 49 27 24 41 41 44 41 39 38 35 33 31 30 29 28 29 30 31 31 29 27 29 33 36 35 37 36 38 38 41
118 111 99 91 87 84 82 75 67 79 82 69 61 46 23 30 39 39 37 37 35 31 29 28 27 26 27 27 28 30 31 31 28 26 25 27 32 36 38 37 37 39 38
123 115 107 97 100 103 95 86 81 72 72 73 64 45 23 26 30 30 30 28 26 27 27 24 24 24 22 22 24 27 27 26 27 25 23 23 26 28 35 37 37 36 36
122 127 125 118 112 104 99 90 82 71 62 58 54 44 31 26 21 21 21 21 23 23 23 23 24 25 24 23 23 22 23 22 19 19 19 20 21 22 28 32 33 35 36
114 112 114 112 112 104 93 83 73 59 52 46 39 35 31 24 20 20 20 19 20 21 21 21 22 23 22 23 23 23 22 21 18 17 16 20 21 21 25 28 32 32 29
109 107 107 103 100 91 84 70 58 46 35 32 29 23 23 23 22 21 19 19 19 18 18 18 18 19 21 22 23 23 22 19 19 20 18 20 23 23 26 28 30 33 31
94 98 89 87 88 78 56 47 29 23 19 16 16 19 19 18 18 18 19 19 19 18 19 19 19 18 17 19 21 20 20 20 20 21 22 22 18 21 23 26 28 33 32